This is the latest recevied weather packets stored in our database for station/object E20YUC-1. If no packets are shown the sender has not sent any weather packets the latest 10 day(s).
| Time | Temp. | Humidity | Pressure | Rain* | Wind** | Luminosity | Snow |
|---|---|---|---|---|---|---|---|
| 1787543974 | 31.11° C | 67% | 996.4 hPa | 0 mm | 3.13 m/s, 0° | - | - |
| 1787543374 | 1.11° C | 69% | 996.6 hPa | 0 mm | 0.45 m/s, 0° | - | - |
| 1787543074 | 31.11° C | 69% | 996.5 hPa | 0 mm | 1.34 m/s, 0° | - | - |
| 1787542781 | 31.11° C | 69% | 996.6 hPa | 0 mm | 2.68 m/s, 0° | - | - |
| 1787542474 | 31.11° C | 70% | 996.7 hPa | 0 mm | 1.34 m/s, 0° | - | - |
| 1787541874 | 30.56° C | 70% | 996.8 hPa | 0 mm | 0.45 m/s, 0° | - | - |
| 1787541574 | 30.56° C | 71% | 996.8 hPa | 0 mm | 4.02 m/s, 0° | - | - |
| 1787541276 | 30.56° C | 71% | 996.7 hPa | 0 mm | 2.24 m/s, 0° | - | - |
| 1787540974 | 30.56° C | 71% | 996.8 hPa | 0 mm | 0 m/s | - | - |
| 1787540674 | 30° C | 72% | 997 hPa | 0 mm | 3.58 m/s, 0° | - | - |
| 1787540074 | 30° C | 72% | 996.8 hPa | 0 mm | 0.45 m/s, 22° | - | - |
| 1787539775 | 30° C | 73% | 996.9 hPa | 0 mm | 0 m/s | - | - |
| 1787539474 | 30° C | 73% | 997 hPa | 0 mm | 0.89 m/s, 0° | - | - |
| 1787539174 | 30° C | 73% | 996.9 hPa | 0 mm | 4.02 m/s, 0° | - | - |
| 1787538573 | 30° C | 74% | 996.9 hPa | 0 mm | 0 m/s | - | - |
| 1787538275 | 29.44° C | 73% | 996.8 hPa | 0 mm | 0 m/s | - | - |
| 1787537973 | 29.44° C | 74% | 996.9 hPa | 0 mm | 3.58 m/s, 0° | - | - |
| 1787537673 | 29.44° C | 75% | 996.7 hPa | 0 mm | 0 m/s | - | - |
| 1787537373 | 29.44° C | 75% | 996.8 hPa | 0 mm | 0 m/s | - | - |
| 1787537073 | 29.44° C | 75% | 996.9 hPa | 0 mm | 1.79 m/s, 0° | - | - |
| 1787536775 | 29.44° C | 75% | 997 hPa | 0 mm | 2.24 m/s, 0° | - | - |
| 1787536473 | 29.44° C | 75% | 996.9 hPa | 0 mm | 1.79 m/s, 0° | - | - |
| 1787536173 | 29.44° C | 75% | 997 hPa | 0 mm | 1.34 m/s, 0° | - | - |
| 1787535873 | 28.89° C | 75% | 997 hPa | 0 mm | 0 m/s | - | - |
| 1787535573 | 28.89° C | 75% | 996.9 hPa | 0 mm | 0 m/s | - | - |
* Rain latest hour (hover to see other rain measurements)
** Current wind speed in m/s (hover to see current wind gust speed)